www.pogodaiklimat.ru

Погода и климат >> Архив погоды >> Россия >> Якутия >> Столб Остров


ПОГОДА на Столб Острове

  • Прогноз погоды на Столб Острове
  • Монитор погоды на Столб Острове

АРХИВ ПОГОДЫ на Столб Острове

Время (UTC), дата Ветер
(напр.,м/с)
 
Видим.   Явления Облачность Т
(С)
Тd
(С)
f
(%)
Тe
(С)
Тes
(С)
Комфортность P
(гПа)
Po
(гПа)
Тmin
(С)
Tmax
(С)
R
(мм)
R24
(мм)
S
(см)
21 16.01 ЮВ 16-18
{19}
4000 м метель ясно -27.0 -30.9 69 -46 -46 опасность
обморожения
1017.1 1014.3
00 17.01 Ю 19-20
{24}
2000 м метель ясно -26.2 -29.4 74 -46 -46 опасность
обморожения
1016.2 1013.4 -32.9 5
03 17.01 Ю 14-16
{23}
4000 м метель 10/0
[Ac As]
-25.6 -29.6 69 -43 -43 опасность
обморожения
1016.4 1013.7
06 17.01 Ю 14-15
{19}
10 км метель 10/0
[Ac As]
-25.0 -28.9 70 -42 -42 опасность
обморожения
1016.6 1013.9
09 17.01 Ю 12-14
{19}
20 км позёмок 10/0
[Cs]
-24.9 -29.5 65 -41 -41 опасность
обморожения
1017.7 1015.0
12 17.01 ЮВ 10-12
{17}
50 км позёмок 10/0
[Cs]
-25.1 -29.8 65 -40 -40 опасность
обморожения
1018.5 1015.8 -24.2
15 17.01 Ю 9-10
{16}
50 км позёмок 6/0
[Cs]
-25.4 -30.9 60 -40 -40 опасность
обморожения
1018.4 1015.7
18 17.01 ЮВ 6
{16}
50 км {метель} 10/0
[Cs]
-25.7 -31.2 60 -38 -38 опасность
обморожения
1019.6 1016.9
21 17.01 ЮВ 5
{12}
50 км 10/0
[Cs]
-27.8 -33.3 59 -40 -40 опасность
обморожения
1020.2 1017.4
00 18.01 ЮВ 4 50 км 10/0
[Cs]
-25.0 -32.4 50 -35 -35 опасность
обморожения
1021.3 1018.5 -28.3 5
03 18.01 З 2 50 км 10/0
[Cs]
-31.9 -36.2 66 -40 -40 опасность
обморожения
1021.2 1018.4 -32.3
06 18.01 штиль 0 50 км 10/0
[Cs]
-32.8 -37.2 65 -33 -33 опасность
обморожения
1021.9 1019.0
09 18.01 штиль 0 50 км ясно -34.1 -37.8 69 -34 -34 опасность
обморожения
1022.4 1019.5
12 18.01 штиль 0 50 км ясно -34.3 -37.8 70 -34 -34 опасность
обморожения
1022.4 1019.5 -24.9
15 18.01 штиль 0 50 км 3/0
[Ci fib]
-35.4 -39.4 67 -35 -35 опасность
обморожения
1022.1 1019.2
18 18.01 штиль 0 50 км ясно -37.4 -41.2 67 -37 -37 опасность
обморожения
1021.4 1018.5
21 18.01 З 1 50 км ясно -35.6 -39.0 71 -40 -40 опасность
обморожения
1020.4 1017.5
00 19.01 штиль 0 50 км ясно -34.6 -38.1 70 -35 -35 опасность
обморожения
1020.1 1017.2 -37.9 5
03 19.01 ЮВ 5 20 км 4/0
[Ci fib]
-34.1 -37.8 69 -48 -48 опасность
обморожения
1019.2 1016.4
06 19.01 Ю 7 20 км 6/0
[Ci fib]
-33.3 -37.0 69 -49 -49 опасность
обморожения
1018.3 1015.5
09 19.01 В 4 20 км ясно -33.3 -37.7 64 -45 -45 опасность
обморожения
1018.2 1015.4
12 19.01 ЮВ 8 20 км ясно -32.1 -35.7 70 -48 -48 опасность
обморожения
1016.8 1014.0 -31.9
15 19.01 Ю 9-10
{12}
50 км ясно -32.4 -36.9 64 -49 -49 опасность
обморожения
1017.2 1014.4
18 19.01 ЮВ 10-11
{13}
50 км ясно -31.7 -37.0 59 -49 -49 опасность
обморожения
1015.8 1013.0
21 19.01 ЮВ 7
{12}
50 км ясно -32.0 -36.5 64 -47 -47 опасность
обморожения
1014.4 1011.6
00 20.01 ЮВ 6
{12}
50 км ясно -30.5 -35.1 64 -44 -44 опасность
обморожения
1013.3 1010.5 -32.7 5
03 20.01 ЮВ 4 50 км 10/0
[Ac As]
-29.2 -33.7 65 -40 -40 опасность
обморожения
1011.6 1008.8
06 20.01 ЮВ 6 50 км 4/0
[Ac As]
-27.0 -31.7 64 -40 -40 опасность
обморожения
1010.7 1007.9
09 20.01 ЮВ 4 50 км 4/0
[Ac As]
-29.1 -33.7 64 -40 -40 опасность
обморожения
1010.6 1007.9
12 20.01 Ю 4 50 км 8/0
[Cs]
-27.6 -32.2 65 -38 -38 опасность
обморожения
1010.0 1007.2 -26.8
15 20.01 ЮВ 4 50 км 3/0
[Cs]
-28.1 -31.9 70 -39 -39 опасность
обморожения
1008.8 1006.0
18 20.01 ЮВ 4 4000 м слаб. снег 10/0
[Cs]
-26.9 -30.0 75 -37 -37 опасность
обморожения
1007.9 1005.2
21 20.01 ЮВ 10-12
{12}
20 км позёмок {снег} 6/0 300 м
[Cs]
-23.2 -26.4 75 -38 -38 опасность
обморожения
1007.2 1004.5
00 21.01 ЮВ 10-13
{14}
4000 м метель {снег} 10/0
[Ac trans Ci fib]
-22.4 -25.6 75 -37 -37 опасность
обморожения
1007.4 1004.7 -30.3 0.0 5
03 21.01 Ю 8-11
{13}
20 км позёмок 10/0
[Ac trans Ci fib]
-23.1 -27.2 69 -36 -36 опасность
обморожения
1008.4 1005.7
06 21.01 Ю 6
{12}
20 км позёмок 10/0
[Ac und]
-22.8 -26.8 70 -34 -34 опасность
обморожения
1009.6 1006.9
09 21.01 З 6
{11}
20 км позёмок 10/0
[Ac und]
-24.2 -28.1 70 -36 -36 опасность
обморожения
1012.3 1009.6
12 21.01 З 1 50 км {метель} 6/0
[Ci fib]
-27.8 -31.7 69 -32 -32 опасность
обморожения
1014.7 1011.9 -22.0
15 21.01 штиль 0 20 км снежные кристаллы 10/0
[Cs]
-28.4 -32.2 70 -28 -28 1016.5 1013.7
18 21.01 штиль 0 10 км слаб. снег 10/0
[Ac As]
-28.0 -31.9 69 -28 -28 1018.5 1015.7
21 21.01 ЮВ 1 20 км {снег} 8/0
[Ac trans]
-27.4 -31.2 70 -31 -31 опасность
обморожения
1020.6 1017.8
00 22.01 штиль 0 50 км {снег} 4/0
[Ac trans]
-30.9 -34.6 70 -31 -31 опасность
обморожения
1022.8 1020.0 -30.9 0.0 5
03 22.01 штиль 0 50 км 10/0
[Ci fib]
-29.8 -33.5 70 -30 -30 1024.4 1021.6
06 22.01 Ю 4 50 км 10/0
[Ci fib]
-29.7 -33.5 69 -41 -41 опасность
обморожения
1026.3 1023.5
09 22.01 В 3 20 км 10/0
[Ci fib]
-31.2 -35.0 69 -41 -41 опасность
обморожения
1027.6 1024.8
12 22.01 ЮЗ 4 20 км ясно -30.4 -34.1 70 -42 -42 опасность
обморожения
1028.6 1025.8 -27.4
15 22.01 ЮВ 6 50 км ясно -32.5 -36.2 69 -47 -47 опасность
обморожения
1028.8 1025.9
18 22.01 Ю 7 50 км ясно -32.2 -35.9 69 -47 -47 опасность
обморожения
1028.8 1025.9
21 22.01 Ю 5 50 км ясно -31.5 -35.2 70 -44 -44 опасность
обморожения
1028.7 1025.9
00 23.01 Ю 8 50 км ясно -30.1 -33.9 69 -46 -46 опасность
обморожения
1028.5 1025.7 -33.1 5
03 23.01 ЮВ 6 50 км ясно -30.8 -34.6 69 -45 -45 опасность
обморожения
1028.5 1025.7
06 23.01 Ю 7 50 км ясно -29.7 -33.5 69 -44 -44 опасность
обморожения
1027.9 1025.1
09 23.01 Ю 4 50 км ясно -29.5 -33.3 69 -41 -41 опасность
обморожения
1027.8 1025.0
12 23.01 Ю 14-15
{18}
10 км метель ясно -28.2 -32.1 69 -47 -47 опасность
обморожения
1026.2 1023.4 -28.0
15 23.01 Ю 10-15
{17}
50 км позёмок ясно -27.8 -31.7 69 -44 -44 опасность
обморожения
1025.7 1022.9
18 23.01 Ю 13-15
{16}
4000 м метель ясно -27.9 -31.7 70 -46 -46 опасность
обморожения
1024.8 1022.0

 

Местоположение метеостанции Столб Остров (Якутия, Россия): широта 72.40 долгота 126.30 высота над уровнем моря 20 м.

В архиве по умолчанию представлена погода на Столб Острове за последнюю неделю. Архивные данные за месяц целиком и за предыдущие месяцы, начиная с января 2011 года, Вы можете получить, выбрав интересующий диапазон дат из раскрывающегося списка и нажав кнопку "Ввод!".


*Определитесь, кто Вы:
робот инопланетянин человек

Внимание! Время в таблицах - всемирное. Для получения местного времени необходимо прибавить поправку, которая равна 9 ч.

Смотрите также архив погоды в соседних городах и на ближайших метеорологических станциях:

Погода на Мысе Быков (Якутия, Россия) (105 км)
Погода в Тюмяти (Якутия, Россия) (109 км)
Погода в Тикси (Якутия, Россия) (128 км)
Погода в Кюсюре (Якутия, Россия) (195 км)
Погода на Усть-Оленеке (Якутия, Россия) (225 км)
Погода в Юбилейной (Якутия, Россия) (392 км)
Погода в Джарджане (Якутия, Россия) (417 км)
Погода в Саскылахе (Якутия, Россия) (421 км)
Погода в Усть-Куйге (Якутия, Россия) (426 км)
Погода в Анабаре (Якутия, Россия) (430 км)

Пояснения к столбцам:

Ветер - указаны скорость ветра в м/с - средняя за 10 мин, порывы в срок и между сроками (в фигурных скобках) и направление, откуда дует ветер: С - северный, СВ - северо-восточный, В - восточный, ЮВ - юго-восточный, Ю - южный, ЮЗ - юго-западный, З - западный, СЗ - северо-западный.
Видимость - горизонтальная дальность видимости в метрах или километрах. При видимости от 1 до 10 км при отсутствии осадков обычно наблюдается дымка, при ухудшении видимости до 1 км и менее - туман. В сухую погоду видимость может ухудшаться дымом, пылью или мглою.
Явления - указаны атмосферные явления, наблюдавшиеся в срок или в последний час перед сроком; фигурными скобками обозначены явления, наблюдавшиеся между сроками (за 1-3 часа до срока); квадратными скобками обозначены град или гололедные отложения с указанием их диаметра в мм.
Облачность - указаны через наклонную черту общая и нижняя облачность в баллах и высота нижней границы облаков в метрах; квадратными скобками обозначены формы облаков: Ci - перистые, Cs - перисто-слоистые, Cc - перисто-кучевые, Ac - высококучевые, As - высокослоистые, Sc - слоисто-кучевые, Ns - слоисто-дождевые, Cu - кучевые, Cb - кучево-дождевые. Подробнее классификацию облаков см. в Атласе облаков (PDF).
T - Температура воздуха - температура, измеренная на высоте 2 м над землей.
Td - Температура точки росы - температура, при понижении до которой содержащийся в воздухе водяной пар достигнет насыщения.
f - Относительная влажность воздуха - влажноcть воздуха, измеренная на высоте 2 м над землей.
Te - Эффективная температура - температура, которую ощущает одетый по сезону человек в тени. Характеристика душности погоды. При расчете учитывается влияние влажности воздуха и скорости ветра на теплоощущения человека.
Tes - Эффективная температура на солнце - температура, которую ощущает человек, с поправкой на солнечный нагрев. Характеристика знойности погоды. Зависит от высоты солнца над горизонтом, облачности и скорости ветра. Ночью, в пасмурную погоду, а также при ветре 12 м/с и более поправка равна нулю.
P - Атмосферное давление - приведенное к уровню моря атмосферное давление.
Po - Атмосферное давление - измеренное на уровне метеостанции атмосферное давление.
Tmin - Минимальная температура - минимум температуры воздуха на высоте 2 м над землей.
Tmax - Максимальная температура - максимум температуры воздуха на высоте 2 м над землей.
R - Количество осадков - Количество выпавших осадков за период времени, мм. При наведении курсора мыши на число - период времени, за который выпало указанное количество осадков.
R24 - Количество осадков - Количество выпавших осадков за 24 часа, мм.
S - Снежный покров - Высота снежного покрова, см. При наведении курсора мыши на число - состояние снежного покрова и степень покрытия местности в баллах.